Location: O'Brien
(30.0517°N, 82.9900°W)
Time: 22:52:32
(UTC-05:00)

ISS - Pass Details

Date: 19 November 2019
Orbit: 411 x 421 km, 51.6° (Epoch: 14 December)

Event Time Altitude Azimuth Distance (km) Brightness Sun altitude
Rises 19:19:56 0° 236° (SW) 2,340 1.2 -22.8°
Reaches altitude 10° 19:22:04 10° 243° (WSW) 1,483 0.0 -23.3°
Enters shadow 19:24:44 39° 288° (WNW) 636 -2.5 -23.8°
